Regional Weather Roundup
Issued by NWS

Home | Current Version | Previous Version | Text Only | Print | Product List | Glossary Off
Versions: 1 2 3 4 5 6 7 8 9 10 11 12 13 14 15 16 17 18 19 20 21 22 23 24 25 26 27 28 29 30 31 32 33 34 35 36 37 38 39 40 41 42 43 44 45 46 47 48 49 50

000
ASUS43 KIND 190959
RWRIN

WEATHER ROUNDUP FOR INDIANA
NATIONAL WEATHER SERVICE INDIANAPOLIS IN
600 AM EDT FRI SEP 19 2014

NOTE: "FAIR" INDICATES FEW OR NO CLOUDS BELOW 12,000 FEET WITH NO
SIGNIFICANT WEATHER AND/OR OBSTRUCTIONS TO VISIBILITY.

* - STATION DOES NOT REPORT WEATHER SUCH AS PRECIPITATION OR FOG.

+ - STATION NOT QUALITY CONTROLLED BY THE NATIONAL WEATHER SERVICE.
    USE DATA WITH CAUTION...ESPECIALLY DEWPOINT AND RELATIVE
    HUMIDITY OBSERVATIONS.

INZ001>003-010>013-019-020-191100-
NORTHWEST INDIANA

CITY           SKY/WX    TMP DP  RH WIND       PRES   REMARKS
GARY /AIRPORT/ CLEAR     57  52  82 E10       30.16R
KNOX *+        CLEAR     49  46  92 SE3       30.16S
RENSSELAER +   CLEAR     46  46 100 E5        30.16R FOG
VALPARAISO     CLEAR     47  46  97 CALM      30.17S FOG

$$

LMZ046-743>745-191100-
SOUTHERN LAKE MICHIGAN

STATION/POSITION TIME  TEMP WIND        PRES
                       AIR  DIR/SP/G
                 (UTC) (F)  (DEG/KT/KT) (MB)
MICHIGAN CITY    0900   57  110/ 10/ 14   N/A

$$

INZ004-005-014>016-021>024-191100-
NORTH CENTRAL INDIANA

CITY           SKY/WX    TMP DP  RH WIND       PRES   REMARKS
GOSHEN         CLEAR     52  49  89 SE6       30.19S FOG
SOUTH BEND     CLEAR     52  50  93 E8        30.19S FOG
WARSAW +       PTCLDY    50  50 100 E6        30.19S FOG

$$

INZ006>009-017-018-025>027-191100-
NORTHEAST INDIANA

CITY           SKY/WX    TMP DP  RH WIND       PRES   REMARKS
ANGOLA *+      CLEAR     48  46  93 SE6       30.20F
FORT WAYNE     PTCLDY    49  48  97 E6        30.20S FOG

$$

INZ028-029-035-036-043>045-051>053-191100-
WEST CENTRAL INDIANA

CITY           SKY/WX    TMP DP  RH WIND       PRES   REMARKS
GREENCASTLE +  CLEAR     48  46  93 CALM      30.14S
LAFAYETTE      CLEAR     49  46  90 NE5       30.15R
TERRE HAUTE    CLEAR     48  46  93 CALM      30.13S

$$

INZ030>032-037>040-046>048-054>057-064-065-191100-
CENTRAL INDIANA

CITY           SKY/WX    TMP DP  RH WIND       PRES   REMARKS
FRANKFORT +    CLEAR    N/A N/A N/A E5        30.16R
INDIANAPOLIS   NOT AVBL
-EAGLE CREEK   CLEAR     51  46  83 CALM      30.15R
KOKOMO *+      CLEAR     48  45  87 E5        30.17S
MT COMFORT *+  CLEAR     48  48 100 CALM      30.16S
SHELBYVILLE    CLEAR     50  46  86 E7        30.15R

$$

INZ033-034-041-042-049-050-058-059-191100-
EAST CENTRAL INDIANA

CITY           SKY/WX    TMP DP  RH WIND       PRES   REMARKS
MUNCIE         CLEAR     48  46  93 E3        30.17R

$$

INZ060-061-067>069-081>083-085>088-191100-
SOUTHWEST INDIANA

CITY           SKY/WX    TMP DP  RH WIND       PRES   REMARKS
EVANSVILLE     CLEAR     55  50  83 NE6       30.10R

$$

INZ062-063-066-070>080-084-089>092-191100-
SOUTH CENTRAL AND SOUTHEAST INDIANA

CITY           SKY/WX    TMP DP  RH WIND       PRES   REMARKS
BLOOMINGTON    CLEAR     46  44  93 CALM      30.14R FOG

$$



USA.gov is the U.S. government's official web portal to all federal, state and local government web resources and services.